TimeCST,TemperatureF,Dew PointF,Humidity,Sea Level PressureIn,VisibilityMPH,Wind Direction,Wind SpeedMPH,Gust SpeedMPH,PrecipitationIn,Events,Conditions,WindDirDegrees,DateUTC
12:15 AM,37.4,30.2,75,29.98,7.0,Calm,Calm,-,N/A,,Clear,0,2012-12-01 06:15:00
12:35 AM,39.2,33.8,81,29.97,7.0,Calm,Calm,-,N/A,,Mostly Cloudy,0,2012-12-01 06:35:00
12:55 AM,41.0,35.6,81,29.97,7.0,Calm,Calm,-,N/A,,Overcast,0,2012-12-01 06:55:00
1:15 AM,42.8,35.6,76,29.96,7.0,Calm,Calm,-,N/A,,Mostly Cloudy,0,2012-12-01 07:15:00
1:35 AM,39.2,33.8,81,29.96,7.0,Calm,Calm,-,N/A,,Mostly Cloudy,0,2012-12-01 07:35:00
1:55 AM,42.8,35.6,76,29.95,7.0,Calm,Calm,-,N/A,,Overcast,0,2012-12-01 07:55:00
2:15 AM,44.6,37.4,76,29.94,7.0,Calm,Calm,-,N/A,,Overcast,0,2012-12-01 08:15:00
3:35 AM,48.2,41.0,76,29.91,7.0,SSE,6.9,-,N/A,,Overcast,160,2012-12-01 09:35:00
3:55 AM,50.0,42.8,76,29.91,7.0,South,9.2,-,N/A,,Overcast,180,2012-12-01 09:55:00
4:15 AM,51.8,44.6,76,29.90,5.0,South,6.9,-,N/A,,Haze,180,2012-12-01 10:15:00
4:35 AM,51.8,44.6,76,29.90,4.0,South,5.8,-,N/A,,Haze,180,2012-12-01 10:35:00
5:15 AM,51.8,44.6,76,29.90,3.0,Calm,Calm,-,N/A,,Haze,0,2012-12-01 11:15:00
6:15 AM,51.8,46.4,82,29.88,0.8,SSE,4.6,-,N/A,,Haze,150,2012-12-01 12:15:00
6:35 AM,51.8,46.4,82,29.88,0.5,South,4.6,-,N/A,,Haze,180,2012-12-01 12:35:00
6:55 AM,51.8,46.4,82,29.87,0.5,South,4.6,-,N/A,,Haze,180,2012-12-01 12:55:00
7:15 AM,51.8,46.4,82,29.87,0.5,South,3.5,-,N/A,,Haze,170,2012-12-01 13:15:00
7:35 AM,51.8,46.4,82,29.87,0.2,South,3.5,-,N/A,,Haze,170,2012-12-01 13:35:00
7:55 AM,51.8,48.2,88,29.88,0.5,South,3.5,-,N/A,Fog,Fog,170,2012-12-01 13:55:00
8:15 AM,53.6,48.2,82,29.87,0.2,South,3.5,-,N/A,,Haze,180,2012-12-01 14:15:00
8:35 AM,53.6,48.2,82,29.87,0.2,SSE,3.5,-,N/A,,Haze,160,2012-12-01 14:35:00
8:55 AM,53.6,48.2,82,29.86,0.2,SSE,4.6,-,N/A,,Haze,160,2012-12-01 14:55:00
9:15 AM,53.6,48.2,82,29.85,0.2,South,4.6,-,N/A,,Haze,170,2012-12-01 15:15:00
9:35 AM,55.4,50.0,82,29.86,1.0,South,5.8,-,N/A,,Haze,190,2012-12-01 15:35:00
9:55 AM,55.4,50.0,82,29.86,1.2,South,4.6,-,N/A,,Haze,190,2012-12-01 15:55:00
10:15 AM,55.4,51.8,88,29.87,1.5,South,4.6,-,N/A,,Haze,180,2012-12-01 16:15:00
10:35 AM,55.4,51.8,88,29.87,1.8,South,5.8,-,N/A,,Haze,190,2012-12-01 16:35:00
10:55 AM,57.2,51.8,82,29.86,1.8,South,5.8,-,N/A,,Haze,190,2012-12-01 16:55:00
11:15 AM,57.2,53.6,88,29.85,2.0,South,8.1,-,N/A,,Haze,180,2012-12-01 17:15:00
11:35 AM,59.0,53.6,82,29.84,2.0,South,5.8,-,N/A,,Haze,180,2012-12-01 17:35:00
12:15 PM,60.8,53.6,77,29.82,2.5,South,6.9,-,N/A,,Haze,190,2012-12-01 18:15:00
12:35 PM,60.8,53.6,77,29.82,2.5,South,6.9,-,N/A,,Haze,190,2012-12-01 18:35:00
12:55 PM,60.8,53.6,77,29.81,3.0,South,6.9,-,N/A,,Haze,190,2012-12-01 18:55:00
1:15 PM,60.8,55.4,82,29.80,3.0,South,5.8,-,N/A,,Haze,190,2012-12-01 19:15:00
1:35 PM,60.8,55.4,82,29.79,3.0,South,6.9,-,N/A,,Haze,170,2012-12-01 19:35:00
1:55 PM,62.6,55.4,77,29.78,4.0,SSE,5.8,-,N/A,,Haze,160,2012-12-01 19:55:00
2:15 PM,62.6,55.4,77,29.78,4.0,SSE,5.8,-,N/A,,Haze,160,2012-12-01 20:15:00
2:35 PM,62.6,55.4,77,29.77,4.0,SSE,6.9,-,N/A,,Haze,160,2012-12-01 20:35:00
2:55 PM,64.4,57.2,77,29.76,5.0,SSE,10.4,-,N/A,,Haze,160,2012-12-01 20:55:00
3:15 PM,66.2,57.2,73,29.75,7.0,South,12.7,-,N/A,,Scattered Clouds,180,2012-12-01 21:15:00
3:35 PM,66.2,55.4,68,29.76,7.0,South,10.4,-,N/A,,Clear,190,2012-12-01 21:35:00
4:15 PM,64.4,55.4,73,29.79,7.0,SW,8.1,-,N/A,,Clear,220,2012-12-01 22:15:00
4:35 PM,62.6,55.4,77,29.79,7.0,SW,5.8,-,N/A,,Clear,220,2012-12-01 22:35:00
5:15 PM,60.8,53.6,77,29.80,7.0,SSW,3.5,-,N/A,,Mostly Cloudy,210,2012-12-01 23:15:00
5:35 PM,59.0,51.8,77,29.81,7.0,Calm,Calm,-,N/A,,Mostly Cloudy,0,2012-12-01 23:35:00
5:55 PM,59.0,51.8,77,29.82,5.0,SSW,3.5,-,N/A,,Haze,200,2012-12-01 23:55:00
6:15 PM,57.2,51.8,82,29.83,5.0,West,4.6,-,N/A,,Haze,280,2012-12-02 00:15:00
6:35 PM,59.0,53.6,82,29.82,7.0,West,3.5,-,N/A,,Overcast,280,2012-12-02 00:35:00
6:55 PM,57.2,51.8,82,29.81,5.0,SE,6.9,-,N/A,,Haze,130,2012-12-02 00:55:00
7:15 PM,55.4,51.8,88,29.82,4.0,Calm,Calm,-,N/A,,Haze,0,2012-12-02 01:15:00
7:35 PM,51.8,46.4,82,29.82,4.0,Calm,Calm,-,N/A,,Haze,0,2012-12-02 01:35:00
7:55 PM,53.6,48.2,82,29.82,2.5,Calm,Calm,-,N/A,,Haze,0,2012-12-02 01:55:00
8:15 PM,51.8,46.4,82,29.83,2.0,WNW,3.5,-,N/A,,Haze,300,2012-12-02 02:15:00
8:35 PM,51.8,46.4,82,29.83,1.2,Calm,Calm,-,N/A,,Haze,0,2012-12-02 02:35:00
8:55 PM,46.4,42.8,87,29.84,0.2,Calm,Calm,-,N/A,,Haze,0,2012-12-02 02:55:00
9:35 PM,44.6,39.2,81,29.84,0.2,Calm,Calm,-,N/A,,Haze,0,2012-12-02 03:35:00
9:55 PM,44.6,41.0,87,29.84,0.2,Calm,Calm,-,N/A,Fog,Fog,0,2012-12-02 03:55:00
10:15 PM,44.6,39.2,81,29.85,0.2,Calm,Calm,-,N/A,Fog,Fog,0,2012-12-02 04:15:00
10:35 PM,44.6,39.2,81,29.85,0.2,Calm,Calm,-,N/A,,Haze,0,2012-12-02 04:35:00
10:55 PM,42.8,37.4,81,29.86,0.2,Calm,Calm,-,N/A,Fog,Fog,0,2012-12-02 04:55:00
11:15 PM,41.0,35.6,81,29.86,0.2,Calm,Calm,-,N/A,,Haze,0,2012-12-02 05:15:00
11:35 PM,41.0,37.4,87,29.87,0.2,Calm,Calm,-,N/A,Fog,Fog,0,2012-12-02 05:35:00
11:55 PM,41.0,35.6,81,29.87,0.2,Calm,Calm,-,N/A,,Haze,0,2012-12-02 05:55:00